Location: Unspecified
(0.0000°N, 0.0000°E)
Time: 03:30:20
(UTC+00:00)

Vanguard 2 - Pass Details

Date: 14 December 2017
Orbit: 552 x 2940 km, 32.9° (Epoch: 16 January)

Event Time Altitude Azimuth Distance (km) Brightness Sun altitude
Rises 12:50:15 0° 251° (WSW) 6,435 12.5 63.1°
Reaches altitude 10° 12:55:24 10° 258° (WSW) 5,128 12.2 62.5°
Maximum altitude 13:07:46 37° 320° (NW) 2,549 10.6 60.8°
Drops below altitude 10° 13:15:46 10° 25° (NNE) 3,312 10.6 59.6°
Sets 13:18:23 0° 34° (NE) 3,996 10.9 59.1°
